Station WPOW1 - West Point, WA Image indicating link to RSS feed of recent meteorological observations for station WPOW1


Conditions at WPOW1 as of
(12:00 pm PDT)
1900 GMT on 06/22/2024:
     

Click on the graph icon in the table below to see a time series plot of the last five days of that observation.

5-day plot - Wind Direction Wind Direction (WDIR): S ( 190 deg true )
5-day plot - Wind Speed Wind Speed (WSPD): 8 kts
5-day plot - Wind Gust Wind Gust (GST): 9 kts
5-day plot - Atmospheric Pressure Atmospheric Pressure (PRES):29.93 in
5-day plot - Pressure Tendency Pressure Tendency (PTDY):-0.01 in ( Falling )
5-day plot - Air Temperature Air Temperature (ATMP): 59.4 °F
5-day plot - Dew Point Dew Point (DEWP): 55.0 °F
5-day plot - Wind Speed at 10 Meters Wind Speed at 10 meters (WSPD10M): 8 kts
5-day plot - Wind Speed at 20 Meters Wind Speed at 20 meters (WSPD20M): 10 kts
5-day plot -  Wind Speed, Wind Gust and Atmospheric Pressure Combined plot of Wind Speed, Gust, and Air Pressure
Continuous Winds
TIME
(PDT)
5-day plot - Wind Direction WDIR 5-day plot - Wind Speed WSPD
12:00 pmS ( 178 deg ) 6 kts
11:50 amS ( 176 deg ) 7 kts
11:40 amS ( 174 deg ) 8 kts
11:30 amSSW ( 198 deg ) 8 kts
11:20 amSSW ( 197 deg ) 10 kts
11:10 amSSW ( 196 deg ) 10 kts
 
Peak gust during the measurement hour
TIME
(PDT)
5-day plot - Gust Direction GDR 5-day plot - Gust Speed GST
11:04 amS ( 190 deg ) 12 kts
Previous observations
TIME
(PDT)
5-day plot - Wind Direction
WDIR
 
5-day plot - Wind Speed
WSPD
kts
5-day plot - Wind Gust
GST
kts
5-day plot - Wave Height
WVHT
ft
5-day plot - Dominant Wave Period
DPD
sec
5-day plot - Average Wave Period
APD
sec
5-day plot - Mean Wave Direction
MWD
 
5-day plot - Atmospheric Pressure
PRES
in
5-day plot - Pressure Tendency
PTDY
in
5-day plot - Air Temperature
ATMP
°F
5-day plot - Water Temperature
WTMP
°F
5-day plot - Dew Point
DEWP
°F
5-day plot - Salinity
SAL
psu
5-day plot - Visibility
VIS
nmi
5-day plot - Tide (above MLLW)
TIDE
ft
2024-06-22 11:00 am S 9 10----29.93+0.00 58.1- 52.2---
2024-06-22 10:00 am S 10 11----29.93+0.00 56.7- 53.1---
2024-06-22 09:00 am S 11 11----29.94+0.00 56.1- 53.2---
2024-06-22 08:00 am S 12 13----29.93+0.00 55.6- 53.6---
2024-06-22 07:00 am S 8 9----29.93+0.00 55.4- 54.3---
2024-06-22 06:00 am S 11 12----29.94+0.01 56.3- 53.6---
2024-06-22 05:00 am S 8 8----29.93+0.01 57.0- 54.3---
2024-06-22 04:00 amSSE 7 9----29.93+0.01 58.1- 54.3---
2024-06-22 03:00 amSSE 6 7----29.92+0.01 58.8- 54.9---
2024-06-22 02:00 amSSE 5 5----29.92+0.01 59.0- 55.0---
2024-06-22 01:00 am NE 2 3----29.92+0.02 61.7- 50.4---
2024-06-22 12:00 am- 0 1----29.91+0.02 59.2- 54.9---
2024-06-21 11:00 pm- 0 1----29.91+0.03 60.1- 55.6---
2024-06-21 10:00 pm N 11 12----29.90+0.02 61.5- 54.5---
2024-06-21 09:00 pm NE 9 11----29.89+0.01 62.1- 52.3---
2024-06-21 08:00 pm NE 12 13----29.88-0.02 63.5- 52.3---
2024-06-21 07:00 pm NE 9 10----29.88-0.03 65.8- 52.0---
2024-06-21 06:00 pm NE 7 8----29.88-0.05 69.6- 49.5---
2024-06-21 05:00 pmNNE 9 10----29.91- 68.2- 50.5---
2024-06-21 04:00 pm NE 9 11----29.91-0.04 70.7- 47.8---
2024-06-21 03:00 pmNNE 6 6----29.93-0.03 68.9- 51.1---
2024-06-21 02:00 pmNNE 4 4----29.94-0.02 66.7- 55.2---
2024-06-21 01:00 pm NE 5 6----29.95- 64.4- 56.1---
2024-06-21 12:00 pmNNE 5 5----29.96-0.02 61.9- 54.0---